Time,TemperatureF,DewpointF,PressureIn,WindDirection,WindDirectionDegrees,WindSpeedMPH,WindSpeedGustMPH,Humidity,HourlyPrecipIn,Conditions,Clouds,dailyrainin,SolarRadiationWatts/m^2,SoftwareType,DateUTC
2013-10-31 00:42:00,46.0,27.0,-100.00,North,350,8.0,11.0,48,0.00,,,0.00,1.000000,,2013-10-31 07:42:00,
2013-10-31 00:52:00,46.0,27.0,-100.00,North,350,8.0,11.0,48,0.00,,,0.00,1.000000,,2013-10-31 07:52:00,
2013-10-31 01:22:00,45.0,28.0,-100.00,North,357,5.0,12.0,51,0.00,,,0.00,1.000000,,2013-10-31 08:22:00,
2013-10-31 01:32:00,45.0,28.0,-100.00,North,357,5.0,12.0,51,0.00,,,0.00,1.000000,,2013-10-31 08:32:00,
2013-10-31 01:42:00,45.0,28.0,-100.00,North,357,5.0,12.0,51,0.00,,,0.00,1.000000,,2013-10-31 08:42:00,
2013-10-31 01:52:00,45.0,28.0,-100.00,North,357,5.0,12.0,51,0.00,,,0.00,1.000000,,2013-10-31 08:52:00,
2013-10-31 02:21:00,46.0,25.0,-100.00,North,4,1.0,7.0,43,0.00,,,0.00,1.000000,,2013-10-31 09:21:00,
2013-10-31 02:33:00,46.0,25.0,-100.00,North,4,1.0,7.0,43,0.00,,,0.00,1.000000,,2013-10-31 09:33:00,
2013-10-31 02:43:00,46.0,25.0,-100.00,North,4,1.0,7.0,43,0.00,,,0.00,1.000000,,2013-10-31 09:43:00,
2013-10-31 02:53:00,46.0,25.0,-100.00,North,4,1.0,7.0,43,0.00,,,0.00,1.000000,,2013-10-31 09:53:00,
2013-10-31 03:42:00,46.0,24.0,-100.00,North,2,5.0,9.0,42,0.00,,,0.00,1.000000,,2013-10-31 10:42:00,
2013-10-31 03:53:00,46.0,24.0,-100.00,North,2,5.0,9.0,42,0.00,,,0.00,1.000000,,2013-10-31 10:53:00,
2013-10-31 04:42:00,45.0,27.0,-100.00,North,357,6.0,9.0,50,0.00,,,0.00,1.000000,,2013-10-31 11:42:00,
2013-10-31 04:52:00,45.0,27.0,-100.00,North,357,6.0,9.0,50,0.00,,,0.00,1.000000,,2013-10-31 11:52:00,
2013-10-31 05:42:00,43.0,29.0,-100.00,NNW,346,9.0,13.0,57,0.00,,,0.00,1.000000,,2013-10-31 12:42:00,
2013-10-31 05:52:00,43.0,29.0,-100.00,NNW,346,9.0,13.0,57,0.00,,,0.00,1.000000,,2013-10-31 12:52:00,
2013-10-31 06:42:00,44.0,29.0,-100.00,North,351,9.0,12.0,56,0.00,,,0.00,1.000000,,2013-10-31 13:42:00,
2013-10-31 06:52:00,44.0,29.0,-100.00,North,351,9.0,12.0,56,0.00,,,0.00,1.000000,,2013-10-31 13:52:00,
2013-10-31 07:42:00,43.0,31.0,-100.00,North,353,11.0,15.0,62,0.00,,,0.00,1.000000,,2013-10-31 14:42:00,
2013-10-31 07:52:00,43.0,31.0,-100.00,North,353,11.0,15.0,62,0.00,,,0.00,1.000000,,2013-10-31 14:52:00,
2013-10-31 09:22:00,45.0,30.0,-100.00,North,354,11.0,19.0,56,-99.99,,,-99.99,133.000000,,2013-10-31 16:22:00,
2013-10-31 09:33:00,45.0,30.0,-100.00,North,354,11.0,19.0,56,-99.99,,,-99.99,133.000000,,2013-10-31 16:33:00,
2013-10-31 09:43:00,45.0,30.0,-100.00,North,354,11.0,19.0,56,-99.99,,,-99.99,133.000000,,2013-10-31 16:43:00,
2013-10-31 09:53:00,45.0,30.0,-100.00,North,354,11.0,19.0,56,-99.99,,,-99.99,133.000000,,2013-10-31 16:53:00,
2013-10-31 10:43:00,47.0,31.0,-100.00,North,355,11.0,19.0,54,0.00,,,-99.99,488.000000,,2013-10-31 17:43:00,
2013-10-31 10:52:00,47.0,31.0,-100.00,North,355,11.0,19.0,54,0.00,,,-99.99,488.000000,,2013-10-31 17:52:00,
2013-10-31 11:21:00,50.0,32.0,-100.00,North,355,9.0,17.0,49,0.00,,,-99.99,701.000000,,2013-10-31 18:21:00,
2013-10-31 11:32:00,50.0,32.0,-100.00,North,355,9.0,17.0,49,0.00,,,-99.99,701.000000,,2013-10-31 18:32:00,
2013-10-31 11:42:00,50.0,32.0,-100.00,North,355,9.0,17.0,49,0.00,,,-99.99,701.000000,,2013-10-31 18:42:00,
2013-10-31 11:52:00,50.0,32.0,-100.00,North,355,9.0,17.0,49,0.00,,,-99.99,701.000000,,2013-10-31 18:52:00,
2013-10-31 12:21:00,52.0,30.0,-100.00,North,2,8.0,15.0,43,0.00,,,-99.99,822.000000,,2013-10-31 19:21:00,
2013-10-31 12:32:00,52.0,30.0,-100.00,North,2,8.0,15.0,43,0.00,,,-99.99,822.000000,,2013-10-31 19:32:00,
2013-10-31 12:42:00,52.0,30.0,-100.00,North,2,8.0,15.0,43,0.00,,,-99.99,822.000000,,2013-10-31 19:42:00,
2013-10-31 12:52:00,52.0,30.0,-100.00,North,2,8.0,15.0,43,0.00,,,-99.99,822.000000,,2013-10-31 19:52:00,
2013-10-31 13:22:00,54.0,29.0,-100.00,North,359,8.0,15.0,38,0.00,,,-99.99,869.000000,,2013-10-31 20:22:00,
2013-10-31 13:32:00,54.0,29.0,-100.00,North,359,8.0,15.0,38,0.00,,,-99.99,869.000000,,2013-10-31 20:32:00,
2013-10-31 13:42:00,54.0,29.0,-100.00,North,359,8.0,15.0,38,0.00,,,-99.99,869.000000,,2013-10-31 20:42:00,
2013-10-31 13:52:00,54.0,29.0,-100.00,North,359,8.0,15.0,38,0.00,,,-99.99,869.000000,,2013-10-31 20:52:00,
2013-10-31 14:21:00,58.0,28.0,-100.00,North,358,7.0,13.0,32,0.00,,,-99.99,837.000000,,2013-10-31 21:21:00,
2013-10-31 14:33:00,58.0,28.0,-100.00,North,358,7.0,13.0,32,0.00,,,-99.99,837.000000,,2013-10-31 21:33:00,
2013-10-31 14:43:00,58.0,28.0,-100.00,North,358,7.0,13.0,32,0.00,,,-99.99,837.000000,,2013-10-31 21:43:00,
2013-10-31 14:54:00,58.0,28.0,-100.00,North,358,7.0,13.0,32,0.00,,,-99.99,837.000000,,2013-10-31 21:54:00,
2013-10-31 15:24:00,58.0,24.0,-100.00,North,4,7.0,15.0,27,0.00,,,-99.99,735.000000,,2013-10-31 22:24:00,
2013-10-31 15:33:00,58.0,24.0,-100.00,North,4,7.0,15.0,27,0.00,,,-99.99,735.000000,,2013-10-31 22:33:00,
2013-10-31 15:43:00,58.0,24.0,-100.00,North,4,7.0,15.0,27,0.00,,,-99.99,735.000000,,2013-10-31 22:43:00,
2013-10-31 15:53:00,58.0,24.0,-100.00,North,4,7.0,15.0,27,0.00,,,-99.99,735.000000,,2013-10-31 22:53:00,
2013-10-31 16:43:00,59.0,23.0,-100.00,NNW,348,5.0,14.0,25,0.00,,,-99.99,568.000000,,2013-10-31 23:43:00,
2013-10-31 16:53:00,59.0,23.0,-100.00,NNW,348,5.0,14.0,25,0.00,,,-99.99,568.000000,,2013-10-31 23:53:00,
2013-10-31 17:21:00,56.0,22.0,-100.00,NNW,346,8.0,13.0,26,0.00,,,-99.99,354.000000,,2013-11-01 00:21:00,
2013-10-31 17:32:00,56.0,22.0,-100.00,NNW,346,8.0,13.0,26,0.00,,,-99.99,354.000000,,2013-11-01 00:32:00,
2013-10-31 17:42:00,56.0,22.0,-100.00,NNW,346,8.0,13.0,26,0.00,,,-99.99,354.000000,,2013-11-01 00:42:00,
2013-10-31 17:52:00,56.0,22.0,-100.00,NNW,346,8.0,13.0,26,0.00,,,-99.99,354.000000,,2013-11-01 00:52:00,
2013-10-31 18:42:00,54.0,21.0,-100.00,North,355,9.0,13.0,27,0.00,,,-99.99,112.000000,,2013-11-01 01:42:00,
2013-10-31 18:52:00,54.0,21.0,-100.00,North,355,9.0,13.0,27,0.00,,,-99.99,112.000000,,2013-11-01 01:52:00,
2013-10-31 19:22:00,53.0,21.0,-100.00,North,352,11.0,15.0,28,0.00,,,-99.99,2.000000,,2013-11-01 02:22:00,
2013-10-31 19:32:00,53.0,21.0,-100.00,North,352,11.0,15.0,28,0.00,,,-99.99,2.000000,,2013-11-01 02:32:00,
2013-10-31 19:42:00,53.0,21.0,-100.00,North,352,11.0,15.0,28,0.00,,,-99.99,2.000000,,2013-11-01 02:42:00,
2013-10-31 19:52:00,53.0,21.0,-100.00,North,352,11.0,15.0,28,0.00,,,-99.99,2.000000,,2013-11-01 02:52:00,
2013-10-31 20:44:00,53.0,21.0,-100.00,North,357,10.0,17.0,28,0.00,,,-99.99,1.000000,,2013-11-01 03:44:00,
2013-10-31 20:54:00,53.0,21.0,-100.00,North,357,10.0,17.0,28,0.00,,,-99.99,1.000000,,2013-11-01 03:54:00,
2013-10-31 21:43:00,53.0,20.0,-100.00,North,351,11.0,20.0,27,0.00,,,-99.99,1.000000,,2013-11-01 04:43:00,
2013-10-31 21:54:00,53.0,20.0,-100.00,North,351,11.0,20.0,27,0.00,,,-99.99,1.000000,,2013-11-01 04:54:00,
2013-10-31 22:23:00,53.0,21.0,-100.00,North,359,8.0,18.0,28,0.00,,,-99.99,1.000000,,2013-11-01 05:23:00,
2013-10-31 22:33:00,53.0,21.0,-100.00,North,359,8.0,18.0,28,0.00,,,-99.99,1.000000,,2013-11-01 05:33:00,
2013-10-31 22:42:00,53.0,21.0,-100.00,North,359,8.0,18.0,28,0.00,,,-99.99,1.000000,,2013-11-01 05:42:00,
2013-10-31 22:53:00,53.0,21.0,-100.00,North,359,8.0,18.0,28,0.00,,,-99.99,1.000000,,2013-11-01 05:53:00,
2013-10-31 23:42:00,52.0,20.0,-100.00,North,351,12.0,15.0,28,0.00,,,-99.99,1.000000,,2013-11-01 06:42:00,
2013-10-31 23:52:00,52.0,20.0,-100.00,North,351,12.0,15.0,28,0.00,,,-99.99,1.000000,,2013-11-01 06:52:00,